User: anonymous   Login
Location: Waldport
(44.4270°N, 124.0680°W)
Time: 07:54:26
(UTC-08:00)
Language:

Cosmos 1570 Rocket - Orbit

View from above orbital plane
View from above orbital plane
View from above satellite
View from above satellite

Ground track
Ground track

The orbit data is extracted from the following two-line orbital elements,

1 15032U 84056B   14352.90050650  .00000405  00000-0  15247-3 0  5632
2 15032 074.0730 301.8365 0018239 330.7771 086.3193 14.34476221596241
Epoch (UTC): 18 December 2014 21:36:43
Eccentricity: 0.0018239
inclination: 74.0730°
perigee height: 764 km
apogee height: 790 km
right ascension of ascending node: 301.8365°
argument of perigee: 330.7771°
revolutions per day: 14.34476221
mean anomaly at epoch: 86.3193°
orbit number at epoch: 59624

The dashed part of the orbit path shows where the satellite is in the earth's shadow,  

DLR